Weather History for KCBK - July, 2013

Change the Weather History Date:

Thursday, July 25, 2013

  Actual Average (KGLD) Record (KGLD)
Temperature  
Mean Temperature 72 °F 76 °F  
Max Temperature 82 °F 90 °F 111 °F (1940)
Min Temperature 62 °F 62 °F 51 °F (1924)
Degree Days  
Heating Degree Days 0 0  
Month to date heating degree days 0  
Since 1 June heating degree days 37  
Since 1 July heating degree days 0  
Cooling Degree Days 7 11  
Month to date cooling degree days 268  
Year to date cooling degree days 488  
Since 1 June cooling degree days 447  
Growing Degree Days 22 (Base 50)    
Moisture  
Dew Point 65 °F    
Average Humidity 91    
Maximum Humidity 100    
Minimum Humidity 54    
Precipitation  
Precipitation 0.00 in 0.12 in 2.02 in (1941)
Month to date precipitation 2.80  
Year to date precipitation 12.53  
Snow  
Snow 0.00 in 0.00 in - ()
Month to date snowfall 0.0  
Since 1 June snowfall 0.0  
Since 1 July snowfall 0.0  
Snow Depth -    
Sea Level Pressure  
Sea Level Pressure 30.10 in    
Wind  
Wind Speed 11 mph (East)    
Max Wind Speed 23 mph    
Max Gust Speed 33 mph    
Visibility 10 miles    
Events Rain    
T = Trace of Precipitation, MM = Missing Value Source: NWS Daily Summary

Daily Weather History Graph

Daily Weather History Graph

Search for Another Location

Airport or City:

Trip Planner

Search our weather history database for the weather conditions in past years. The results will help you decide how hot, cold, wet, or windy it might be!

Date:

Astronomy

Jul. 25, 2013 Rise Set
Actual Time 6:38 AM CDT 9:02 PM CDT
Civil Twilight 6:07 AM CDT 9:33 PM CDT
Nautical Twilight 5:29 AM CDT 10:11 PM CDT
Astronomical Twilight 4:47 AM CDT 10:52 PM CDT
Moon 10:46 PM CDT (7/25) 10:08 AM CDT (7/25)
Length of Visible Light 15h 26m
Length of Day
14h 24m
Waning Gibbous, 88% of the Moon is Illuminated
Jul 25
Waning Gibbous
Jul 29
Last Quarter
Aug 6
New
Aug 14
First Quarter
Aug 20
Full

Hourly Weather History & Observations

Time (CDT) Temp. Heat Index Dew Point Humidity Pressure Visibility Wind Dir Wind Speed Gust Speed Precip Events Conditions
12:15 AM 77.0 °F - 62.6 °F 61% 30.12 in 10.0 mi SE 12.7 mph - N/A   Overcast
12:35 AM 75.2 °F - 62.6 °F 65% 30.16 in 10.0 mi NNW 16.1 mph 24.2 mph N/A   Overcast
12:55 AM 66.2 °F - 62.6 °F 88% 30.16 in 10.0 mi NNW 23.0 mph 33.4 mph N/A Rain Light Rain
1:15 AM 62.6 °F - 62.6 °F 100% 30.16 in 10.0 mi North 20.7 mph 27.6 mph N/A Rain Light Rain
1:35 AM 62.6 °F - 62.6 °F 100% 30.18 in 4.0 mi North 17.3 mph - N/A Rain Heavy Rain
1:55 AM 62.6 °F - 62.6 °F 100% 30.17 in 7.0 mi NNE 12.7 mph - N/A Rain Light Rain
2:15 AM 62.6 °F - 62.6 °F 100% 30.17 in 10.0 mi North 12.7 mph - N/A Rain Light Rain
2:35 AM 62.6 °F - 62.6 °F 100% 30.16 in 10.0 mi North 10.4 mph - N/A   Overcast
2:55 AM 64.4 °F - 64.4 °F 100% 30.14 in 10.0 mi NNE 12.7 mph - N/A   Overcast
3:15 AM 64.4 °F - 64.4 °F 100% 30.13 in 10.0 mi ENE 10.4 mph - N/A   Overcast
3:35 AM 64.4 °F - 62.6 °F 94% 30.12 in 10.0 mi ENE 9.2 mph - N/A   Mostly Cloudy
3:55 AM 64.4 °F - 62.6 °F 94% 30.12 in 10.0 mi East 6.9 mph - N/A   Mostly Cloudy
4:15 AM 62.6 °F - 62.6 °F 100% 30.12 in 10.0 mi ESE 4.6 mph - N/A   Scattered Clouds
4:35 AM 62.6 °F - 62.6 °F 100% 30.11 in 10.0 mi ESE 5.8 mph - N/A   Clear
4:55 AM 62.6 °F - 62.6 °F 100% 30.10 in 10.0 mi East 6.9 mph - N/A   Clear
5:15 AM 62.6 °F - 62.6 °F 100% 30.09 in 10.0 mi ESE 6.9 mph - N/A   Clear
5:35 AM 62.6 °F - 62.6 °F 100% 30.08 in 10.0 mi ESE 10.4 mph - N/A   Scattered Clouds
5:55 AM 62.6 °F - 62.6 °F 100% 30.08 in 10.0 mi ESE 6.9 mph - N/A   Clear
6:15 AM 62.6 °F - 62.6 °F 100% 30.07 in 10.0 mi ESE 9.2 mph - N/A   Clear
6:35 AM 62.6 °F - 62.6 °F 100% 30.06 in 10.0 mi ESE 8.1 mph - N/A   Clear
6:55 AM 62.6 °F - 62.6 °F 100% 30.07 in 7.0 mi ESE 10.4 mph - N/A   Clear
7:15 AM 64.4 °F - 64.4 °F 100% 30.09 in 10.0 mi SE 8.1 mph - N/A   Scattered Clouds
7:35 AM 64.4 °F - 64.4 °F 100% 30.09 in 10.0 mi ESE 9.2 mph - N/A   Scattered Clouds
7:55 AM 64.4 °F - 64.4 °F 100% 30.10 in 10.0 mi SE 8.1 mph - N/A   Mostly Cloudy
8:15 AM 64.4 °F - 64.4 °F 100% 30.10 in 10.0 mi SE 6.9 mph - N/A   Mostly Cloudy
8:35 AM 64.4 °F - 64.4 °F 100% 30.09 in 10.0 mi ESE 6.9 mph - N/A   Mostly Cloudy
8:55 AM 64.4 °F - 64.4 °F 100% 30.09 in 10.0 mi ESE 5.8 mph - N/A   Mostly Cloudy
9:15 AM 64.4 °F - 64.4 °F 100% 30.10 in 10.0 mi ESE 9.2 mph - N/A   Mostly Cloudy
9:35 AM 66.2 °F - 64.4 °F 94% 30.10 in 10.0 mi SE 11.5 mph - N/A   Mostly Cloudy
9:55 AM 66.2 °F - 66.2 °F 100% 30.10 in 10.0 mi SE 11.5 mph - N/A   Overcast
10:15 AM 68.0 °F - 66.2 °F 94% 30.10 in 10.0 mi SE 10.4 mph - N/A   Overcast
10:35 AM 68.0 °F - 68.0 °F 100% 30.10 in 10.0 mi SE 12.7 mph - N/A   Overcast
10:55 AM 69.8 °F - 68.0 °F 94% 30.10 in 10.0 mi SE 13.8 mph - N/A   Mostly Cloudy
11:15 AM 71.6 °F - 68.0 °F 88% 30.09 in 10.0 mi SE 15.0 mph - N/A   Mostly Cloudy
11:35 AM 71.6 °F - 68.0 °F 88% 30.09 in 10.0 mi SE 12.7 mph - N/A   Overcast
11:55 AM 73.4 °F - 69.8 °F 88% 30.08 in 10.0 mi SE 12.7 mph - N/A   Mostly Cloudy
12:15 PM 75.2 °F - 68.0 °F 78% 30.08 in 10.0 mi SE 15.0 mph - N/A   Scattered Clouds
12:35 PM 77.0 °F - 68.0 °F 74% 30.09 in 10.0 mi SE 13.8 mph - N/A   Mostly Cloudy
12:55 PM 77.0 °F - 68.0 °F 74% 30.09 in 10.0 mi ESE 9.2 mph - N/A   Overcast
1:15 PM 78.8 °F - 64.4 °F 61% 30.07 in 10.0 mi South 9.2 mph - N/A   Mostly Cloudy
1:35 PM 80.6 °F 82.3 °F 64.4 °F 58% 30.07 in 10.0 mi South 8.1 mph - N/A   Scattered Clouds
1:55 PM 80.6 °F 82.3 °F 64.4 °F 58% 30.07 in 10.0 mi SSE 8.1 mph - N/A   Scattered Clouds
2:15 PM 80.6 °F 82.3 °F 64.4 °F 58% 30.07 in 10.0 mi East 6.9 mph - N/A   Mostly Cloudy
2:35 PM 82.4 °F 83.9 °F 64.4 °F 54% 30.07 in 10.0 mi ESE 8.1 mph - N/A   Mostly Cloudy
2:55 PM 82.4 °F 83.9 °F 64.4 °F 54% 30.05 in 10.0 mi East 12.7 mph - N/A   Mostly Cloudy
3:15 PM 80.6 °F 83.2 °F 68.0 °F 65% 30.06 in 10.0 mi East 12.7 mph - N/A   Overcast
3:35 PM 78.8 °F - 66.2 °F 65% 30.04 in 10.0 mi East 11.5 mph - N/A   Overcast
3:55 PM 77.0 °F - 68.0 °F 74% 30.03 in 10.0 mi East 10.4 mph - N/A Rain Light Rain
4:15 PM 73.4 °F - 68.0 °F 83% 30.03 in 7.0 mi ESE 5.8 mph - N/A Rain Heavy Rain
4:35 PM 71.6 °F - 68.0 °F 88% 30.07 in 10.0 mi WNW 19.6 mph 24.2 mph N/A Rain Rain
4:55 PM 68.0 °F - 68.0 °F 100% 30.09 in 1.5 mi NW 20.7 mph 27.6 mph N/A Rain Heavy Rain
5:15 PM 66.2 °F - 66.2 °F 100% 30.07 in 2.0 mi NNE 19.6 mph 23.0 mph N/A Rain Rain
5:35 PM 66.2 °F - 66.2 °F 100% 30.07 in 10.0 mi NNE 9.2 mph - N/A   Overcast
5:55 PM 66.2 °F - 66.2 °F 100% 30.06 in 10.0 mi NNE 11.5 mph - N/A   Overcast
6:15 PM 68.0 °F - 68.0 °F 100% 30.07 in 10.0 mi NE 10.4 mph - N/A   Overcast
6:35 PM 66.2 °F - 66.2 °F 100% 30.04 in 7.0 mi East 15.0 mph - N/A Rain Light Rain
6:55 PM 66.2 °F - 66.2 °F 100% 30.05 in 10.0 mi ENE 18.4 mph - N/A Rain Light Rain
7:15 PM 68.0 °F - 66.2 °F 94% 30.07 in 10.0 mi East 10.4 mph - N/A   Scattered Clouds
7:35 PM 68.0 °F - 68.0 °F 100% 30.09 in 10.0 mi North 12.7 mph - N/A   Clear
7:55 PM 68.0 °F - 66.2 °F 94% 30.08 in 10.0 mi North 10.4 mph - N/A   Clear
8:15 PM 69.8 °F - 66.2 °F 88% 30.08 in 10.0 mi North 8.1 mph - N/A   Clear
8:35 PM 68.0 °F - 66.2 °F 94% 30.08 in 10.0 mi Calm Calm - N/A   Clear
8:55 PM 68.0 °F - 66.2 °F 94% 30.08 in 10.0 mi Calm Calm - N/A   Clear
9:15 PM 66.2 °F - 64.4 °F 94% 30.10 in 10.0 mi ENE 5.8 mph - N/A   Clear
9:35 PM 64.4 °F - 64.4 °F 100% 30.12 in 10.0 mi ENE 4.6 mph - N/A   Clear
9:55 PM 64.4 °F - 64.4 °F 100% 30.13 in 10.0 mi ENE 3.5 mph - N/A   Clear
10:15 PM 64.4 °F - 64.4 °F 100% 30.13 in 10.0 mi NE 3.5 mph - N/A   Clear
10:35 PM 64.4 °F - 64.4 °F 100% 30.14 in 10.0 mi North 3.5 mph - N/A   Scattered Clouds
10:55 PM 64.4 °F - 64.4 °F 100% 30.14 in 10.0 mi Calm Calm - N/A   Scattered Clouds
11:15 PM 66.2 °F - 64.4 °F 94% 30.14 in 10.0 mi Calm Calm - N/A   Mostly Cloudy
11:35 PM 64.4 °F - 64.4 °F 100% 30.14 in 10.0 mi WSW 3.5 mph - N/A   Mostly Cloudy
11:55 PM 62.6 °F - 62.6 °F 100% 30.14 in 10.0 mi Calm Calm - N/A   Scattered Clouds